EET,Max TemperatureF,Mean TemperatureF,Min TemperatureF,Max Dew PointF,MeanDew PointF,Min DewpointF,Max Humidity, Mean Humidity, Min Humidity, Max Sea Level PressureIn, Mean Sea Level PressureIn, Min Sea Level PressureIn, Max VisibilityMiles, Mean VisibilityMiles, Min VisibilityMiles, Max Wind SpeedMPH, Mean Wind SpeedMPH, Max Gust SpeedMPH,PrecipitationIn, CloudCover, Events, WindDirDegrees
2012-11-1,89,78,66,70,65,54,100,71,27,29.98,29.94,29.88,6,3,1,16,11,,0.00,6,,42
2012-11-2,86,77,68,70,67,64,100,75,45,29.94,29.90,29.86,6,3,2,21,12,,0.00,,,37
2012-11-3,86,80,73,71,64,54,83,61,27,29.95,29.90,29.86,6,4,1,23,12,,0.00,5,,30
2012-11-4,88,78,68,66,57,41,73,50,21,30.01,29.95,29.92,6,6,6,21,13,,0.00,6,,47
2012-11-5,82,76,71,70,68,64,90,76,52,30.01,29.96,29.92,6,5,4,17,13,,0.00,5,,25
2012-11-6,85,77,69,72,66,57,100,74,39,30.06,30.00,29.95,6,4,1,18,13,,0.00,2,,16
2012-11-7,81,74,66,68,64,59,95,74,40,30.09,30.03,29.98,6,4,0,16,10,,0.00,2,Fog,19
2012-11-8,81,72,64,66,63,61,94,72,51,30.01,29.94,29.89,6,3,2,12,7,,0.00,,,26
2012-11-9,79,74,68,66,57,50,83,60,32,29.98,29.91,29.86,6,6,6,20,11,,0.00,4,,267
2012-11-10,74,70,65,59,51,48,68,52,30,30.11,29.98,29.95,6,6,2,13,10,,0.00,4,,238
2012-11-11,74,69,64,57,53,45,77,56,36,30.09,30.04,30.01,6,6,6,16,9,,0.00,4,,269
2012-11-12,74,68,61,54,53,48,77,58,34,30.09,30.05,29.83,6,6,4,15,9,,0.00,3,,273
2012-11-13,75,67,59,57,55,52,82,64,41,30.09,30.05,30.01,6,4,1,12,6,,0.00,5,,321
2012-11-14,75,68,60,60,56,54,88,66,41,30.09,30.05,30.01,6,3,1,10,5,,0.00,4,,25
2012-11-15,78,70,61,63,56,48,88,65,34,30.09,30.04,29.98,6,6,6,16,10,,0.00,4,,57
2012-11-16,79,70,60,61,53,41,88,58,26,30.01,29.95,29.92,6,4,2,13,8,,0.00,6,,82
2012-11-17,80,72,64,54,43,39,68,35,18,29.92,29.89,29.83,6,4,2,14,8,,0.00,,,180
2012-11-18,80,72,65,54,43,39,64,36,21,29.98,29.92,29.86,4,3,2,13,6,,0.00,,,173
2012-11-19,77,70,62,63,55,46,83,62,34,30.06,30.02,29.98,6,3,1,10,5,,0.00,,,31
2012-11-20,78,70,61,59,56,52,88,63,36,30.06,30.02,29.98,6,5,4,14,8,,0.00,3,,53
2012-11-21,76,69,62,59,55,49,82,63,28,30.01,29.96,29.92,6,6,6,12,8,,0.00,,,45
2012-11-22,75,68,62,63,57,50,88,68,45,29.95,29.92,29.86,6,4,2,12,5,,0.00,3,,352
2012-11-23,74,67,60,57,56,54,82,67,50,30.06,30.00,29.95,6,5,2,14,6,,0.00,4,,275
2012-11-24,72,66,60,58,54,48,88,66,43,30.07,30.03,29.98,6,3,1,9,4,,0.00,4,,311
2012-11-25,71,66,61,57,54,50,82,66,45,30.06,30.02,29.98,6,3,1,14,6,,0.00,4,,320
2012-11-26,70,63,56,55,52,48,88,65,40,30.11,30.06,30.04,6,4,1,12,3,,0.00,4,,324
2012-11-27,73,64,56,59,53,48,82,66,50,30.10,30.07,30.04,6,4,1,15,5,,0.00,3,,32
2012-11-28,74,65,56,57,53,48,94,68,37,30.13,30.08,30.04,6,5,2,16,7,,0.00,2,,49
2012-11-29,76,66,56,59,49,41,94,59,29,30.09,30.05,30.01,6,3,1,12,7,,0.00,,,62
2012-11-30,81,68,56,46,41,32,55,37,18,30.07,30.03,30.01,6,4,1,13,7,,0.00,,,91